AirNav   Air Wisconsin pilot careers
 
 833 users online  

89D Kelleys Island Land Field Airport
Kelleys Island, Ohio, USA

GOING TO KELLEYS ISLAND?


FAA INFORMATION EFFECTIVE 19 JULY 2018

Location

FAA Identifier: 89D
Lat/Long: 41-36-11.4550N / 082-41-06.1950W
41-36.190917N / 082-41.103250W
41.6031819 / -82.6850542
(estimated)
Elevation: 598 ft. / 182.3 m (surveyed)
Variation: 07W (2000)
From city: 1 mile NE of KELLEYS ISLAND, OH
Time zone: UTC -4 (UTC -5 during Standard Time)
Zip code: 43438

Airport Operations

Airport use: Open to the public
Activation date: 05/1949
Control tower: no
ARTCC: CLEVELAND CENTER
FSS: CLEVELAND FLIGHT SERVICE STATION
NOTAMs facility: CLE (NOTAM-D service available)
Attendance: UNATNDD
Wind indicator: lighted
Segmented circle: no
Lights: SS-SR
Landing fee: yes

Airport Communications

CTAF: 122.9
WX AWOS-3 at PCW (10 nm SW): 118.775 (419-734-9955)

Nearby radio navigation aids

VOR radial/distance  VOR name  Freq  Var
DJBr307/27.7DRYER VOR/DME113.6005W
YQGr177/39.3WINDSOR VOR/DME113.8006W

 
NDB name  Hdg/Dist  Freq  Var  ID
PORT CLINTON065/9.742307WPCW .--. -.-. .--
GROSSE ILE152/36.541907WRYS .-. -.-- ...
TIFFIN043/38.726905WTII - .. ..

Airport Services

Parking: tiedowns
Airframe service: NONE
Powerplant service: NONE
Bottled oxygen: NONE
Bulk oxygen: NONE

Runway Information

Runway 9/27

Dimensions: 2203 x 50 ft. / 671 x 15 m
Surface: asphalt, in fair condition
Runway edge lights: low intensity
Runway edge markings: RY 09/27 NSTD MARKINGS; PAINT ROLLER SIZE AND DONE BY HAND. MARKINGS FADED.
RUNWAY 9  RUNWAY 27
Latitude: 41-36.198333N41-36.183500N
Longitude: 082-41.344500W082-40.862000W
Elevation: 598.0 ft.597.0 ft.
Gradient: 0.3%0.3%
Traffic pattern: leftleft
Runway heading: 099 magnetic, 092 true279 magnetic, 272 true
Markings: NSTD, in fair conditionNSTD, in fair condition
Runway end identifier lights: nono
Touchdown point: yes, no lightsyes, no lights
Obstructions: 44 ft. trees, 400 ft. from runway, 140 ft. right of centerline, 4:1 slope to clear
10 FT RD 12 FT FM RY END 125 FT L&R; 11 FT SIGN 0 FT FM 87 FT RT.
none

Airport Ownership and Management from official FAA records

Ownership: Publicly-owned
Owner: VILLAGE OF KELLEYS ISLAND
121 ADDISON ST. BOX 469
KELLEYS ISLAND, OH 43438
Phone (419) 746-2535
Manager: ARDEN COOPER
121 ADDISON ST. BOX 469
KELLEYS ISLAND, OH 43438
Phone (330) 495-0084

Airport Operational Statistics

Aircraft based on the field: 3
Single engine airplanes: 3
    
Aircraft operations: avg 70/day *
37% transient general aviation
34% air taxi
29% local general aviation
* for 12-month period ending 31 December 2015

Additional Remarks

DEER ON AND INVOF ARPT.

Instrument Procedures

There are no published instrument procedures at 89D.

Some nearby airports with instrument procedures:

KPCW - Erie-Ottawa International Airport (10 nm SW)
5A1 - Norwalk-Huron County Airport (22 nm S)
S24 - Sandusky County Regional Airport (24 nm SW)
14G - Fremont Airport (27 nm SW)
KLPR - Lorain County Regional Airport (28 nm SE)
 
Loc | Ops | Rwys | IFR | FBO | Links
Com | Nav | Svcs | Stats | Notes

City of Findlay
 
Area around 89D (Kelleys Island Land Field Airport)
 
Road maps at: MapQuest Bing Google
 
Aerial photo
WARNING: Photo may not be current or correct
Aerial photo of 89D (Kelleys Island Land Field Airport)
Photo by David Newcomer
Photo taken 22-Sep-2017
from 2,000' AGL looking west.

Do you have a better or more recent aerial photo of Kelleys Island Land Field Airport that you would like to share? If so, please send us your photo.

 
Sectional chart

 
Airport distance calculator
Flying to Kelleys Island Land Field Airport? Find the distance to fly.

From to 89D

Sunrise and sunset
Times for 22-Jul-2018
 Local
(UTC-4)
 Zulu
(UTC)
Morning civil twilight05:4409:44
Sunrise06:1710:17
Sunset20:5800:58
Evening civil twilight21:3001:30

Current date and time
Zulu (UTC)  23-Jul-2018 03:00:09
Local (UTC-4)  22-Jul-2018 23:00:09
 
METAR
KPCW 
10nm SW 
230235Z AUTO 03007KT 10SM 19/15 A2986 RMK AO2
TAF
KCLE 
39nm E 
222057Z 2221/2324 36010KT P6SM BKN009 OVC012 FM222200 01010KT P6SM BKN015 BKN025 FM230000 02010KT P6SM BKN035 FM230800 VRB03KT P6SM SCT015 BKN025 FM231800 VRB02KT P6SM SCT035 BKN040 PROB30 2318/2324 4SM -TSRA BKN025CB
CYQG 
42nm N 
221742Z 2218/2318 04010G20KT P6SM -RA OVC040 TEMPO 2218/2220 4SM -RA BR BKN020 OVC040 FM222000 02012G22KT P6SM SCT020 OVC060 TEMPO 2220/2221 P6SM -RA BKN020 OVC060 FM222100 02010G20KT P6SM BKN030 BKN060 BECMG 2223/2301 02008KT FM230300 35008KT P6SM BKN020 FM230600 32003KT P6SM SCT008 BKN012 PROB30 2309/2312 1SM BR BKN006 FM231500 VRB03KT P6SM FEW020 SCT050 RMK NXT FCST BY 230000Z
KDTW 
48nm NW 
222002Z 2220/2324 01008KT P6SM SCT025 BKN035 OVC050 TEMPO 2220/2224 6SM -SHRA BKN025 OVC035 FM230000 01005KT P6SM BKN022 BKN050 BKN070 FM230500 VRB03KT P6SM SCT008 OVC018 FM231500 VRB03KT P6SM BKN025 FM231800 16005KT P6SM BKN040
KMFD 
48nm S 
222206Z 2222/2318 01010KT P6SM OVC007 TEMPO 2300/2303 SCT007 OVC012 FM230300 01006KT P6SM SCT015 OVC020 FM230700 VRB03KT P6SM BKN025 TEMPO 2310/2313 4SM BR BKN015
NOTAMs
Click for the latest NOTAMs
NOTAMs are issued by the DoD/FAA and will open in a separate window not controlled by AirNav.

 

 
 

Would you like to see your business listed on this page?

 If your business provides an interesting product or service to pilots, flight crews, aircraft, or users of the Kelleys Island Land Field Airport, you should consider listing it here.  To start the listing process, click on the button below
 
Add a business
 

Other Pages about Kelleys Island Land Field Airport

Update a link
 
Copyright © AirNav, LLC. All rights reserved. Privacy Policy  Contact